Weather History for Omaha Millard, NE

Change the Weather History Date:

Wednesday, January 30, 2013

  Actual Average (KOMA) Record (KOMA)
Temperature  
Mean Temperature 23 °F 24 °F  
Max Temperature 30 °F 34 °F 69 °F (2012)
Min Temperature 16 °F 14 °F -16 °F (1965)
Degree Days  
Heating Degree Days 42 41  
Month to date heating degree days 1251  
Since 1 July heating degree days 3730  
Cooling Degree Days 0 0  
Month to date cooling degree days 0  
Year to date cooling degree days 0  
Moisture  
Dew Point 17 °F    
Average Humidity 76    
Maximum Humidity 96    
Minimum Humidity 59    
Precipitation  
Precipitation 0.02 in 0.02 in 0.33 in (1915)
Month to date precipitation 0.69  
Year to date precipitation 0.69  
Snow  
Snow 0.00 in 0.20 in - ()
Month to date snowfall 5.9  
Since 1 July snowfall 14.9  
Snow Depth -    
Sea Level Pressure  
Sea Level Pressure 29.81 in    
Wind  
Wind Speed 14 mph (NW)    
Max Wind Speed 23 mph    
Max Gust Speed 32 mph    
Visibility 7 miles    
Events Snow    
T = Trace of Precipitation, MM = Missing Value Source: NWS Daily Summary

Daily Weather History Graph

Daily Weather History Graph

Search for Another Location

Airport:

Trip Planner

Search our weather history database for the weather conditions in past years. The results will help you decide how hot, cold, wet, or windy it might be!

Date:

Astronomy

Jan. 30, 2013 Rise Set
Actual Time 7:37 AM CST 5:39 PM CST
Civil Twilight 7:07 AM CST 6:08 PM CST
Nautical Twilight 6:34 AM CST 6:41 PM CST
Astronomical Twilight 6:02 AM CST 7:13 PM CST
Moon 9:41 PM CST (1/30) 9:02 AM CST (1/30)
Length of Visible Light 11h 00m
Length of Day
10h 01m
Waning Gibbous, 87% of the Moon is Illuminated
Jan 30
Waning Gibbous
Feb 3
Last Quarter
Feb 10
New
Feb 17
First Quarter
Feb 25
Full

Hourly Weather History & Observations

Time (CST) Temp. Windchill Dew Point Humidity Pressure Visibility Wind Dir Wind Speed Gust Speed Precip Events Conditions
12:35 AM 30.7 °F 20.9 °F 29.3 °F 94% 29.66 in 1.0 mi NNW 12.7 mph 17.3 mph N/A Snow Snow
12:55 AM 30.2 °F 20.8 °F 28.8 °F 94% 29.66 in 0.8 mi North 11.5 mph 26.5 mph 0.01 in Snow Snow
1:15 AM 29.3 °F 19.1 °F 28.2 °F 96% 29.65 in 0.8 mi NNW 12.7 mph 19.6 mph N/A Snow Snow
1:35 AM 29.3 °F 17.7 °F 28.0 °F 95% 29.66 in 0.8 mi NNW 16.1 mph 24.2 mph N/A Snow Snow
1:55 AM 27.9 °F 16.8 °F 26.2 °F 94% 29.68 in 0.8 mi NNW 13.8 mph 26.5 mph N/A Snow Snow
2:15 AM 27.3 °F 15.2 °F 25.7 °F 94% 29.68 in 1.2 mi NNW 16.1 mph 23.0 mph N/A Snow Light Snow
2:35 AM 27.1 °F 16.4 °F 25.7 °F 94% 29.69 in 1.2 mi NNW 12.7 mph 18.4 mph N/A Snow Light Snow
2:55 AM 27.1 °F 17.5 °F 25.5 °F 94% 29.70 in 1.5 mi NNW 10.4 mph 16.1 mph N/A Snow Light Snow
3:15 AM 26.4 °F 16.6 °F 24.6 °F 93% 29.71 in 1.5 mi NW 10.4 mph 24.2 mph N/A Snow Light Snow
3:35 AM 26.1 °F 15.6 °F 23.9 °F 92% 29.71 in 1.8 mi NNW 11.5 mph 26.5 mph N/A Snow Light Snow
3:55 AM 25.7 °F 14.6 °F 23.9 °F 93% 29.71 in 1.2 mi NW 12.7 mph 20.7 mph N/A Snow Light Snow
4:15 AM 25.7 °F 12.7 °F 23.9 °F 93% 29.71 in 1.0 mi NW 17.3 mph 24.2 mph N/A Snow Light Snow
4:35 AM 25.2 °F 12.4 °F 23.5 °F 94% 29.72 in 1.0 mi NNW 16.1 mph 28.8 mph 0.01 in Snow Light Snow
4:55 AM 24.8 °F 13.4 °F 22.6 °F 91% 29.72 in 1.5 mi NNW 12.7 mph 24.2 mph 0.01 in Snow Light Snow
5:15 AM 24.8 °F 13.4 °F 22.6 °F 91% 29.73 in 2.0 mi NNW 12.7 mph 24.2 mph N/A Snow Light Snow
5:35 AM 24.8 °F 12.9 °F 22.6 °F 91% 29.73 in 2.0 mi NNW 13.8 mph 20.7 mph N/A Snow Light Snow
6:15 AM 23.9 °F 14.2 °F 22.1 °F 93% 29.74 in 1.2 mi NNW 9.2 mph 18.4 mph N/A Snow Light Snow
6:35 AM 24.3 °F 10.4 °F 22.1 °F 91% 29.75 in 1.8 mi NNW 18.4 mph 27.6 mph N/A Snow Light Snow
6:55 AM 24.6 °F 12.2 °F 19.6 °F 81% 29.75 in 7.0 mi NNW 15.0 mph 26.5 mph N/A   Overcast
7:15 AM 24.4 °F 10.2 °F 18.5 °F 78% 29.76 in 7.0 mi NW 19.6 mph 29.9 mph N/A   Overcast
7:35 AM 24.3 °F 10.0 °F 18.1 °F 77% 29.77 in 10.0 mi NW 19.6 mph 28.8 mph N/A   Overcast
7:55 AM 23.9 °F 10.8 °F 18.0 °F 78% 29.78 in 5.0 mi NNW 16.1 mph 24.2 mph N/A   Haze
8:15 AM 23.9 °F 10.8 °F 17.8 °F 77% 29.79 in 7.0 mi NW 16.1 mph 27.6 mph N/A   Overcast
8:35 AM 23.9 °F 10.3 °F 18.5 °F 80% 29.80 in 5.0 mi NW 17.3 mph 25.3 mph N/A Snow Light Snow
8:55 AM 23.4 °F 9.6 °F 17.8 °F 79% 29.82 in 4.0 mi NW 17.3 mph 29.9 mph N/A Snow Light Snow
9:15 AM 23.4 °F 8.8 °F 16.7 °F 76% 29.82 in 7.0 mi NNW 19.6 mph 28.8 mph N/A Snow Light Snow
9:35 AM 23.4 °F 9.2 °F 14.9 °F 70% 29.82 in 5.0 mi NNW 18.4 mph 26.5 mph N/A   Haze
9:55 AM 23.4 °F 9.6 °F 14.9 °F 70% 29.82 in 10.0 mi NW 17.3 mph 28.8 mph N/A   Overcast
10:15 AM 23.5 °F 10.3 °F 14.5 °F 69% 29.83 in 10.0 mi NW 16.1 mph 23.0 mph N/A   Overcast
10:35 AM 23.7 °F 10.5 °F 14.9 °F 69% 29.83 in 5.0 mi NW 16.1 mph 25.3 mph N/A Snow Light Snow
10:55 AM 24.1 °F 9.0 °F 15.6 °F 70% 29.83 in 10.0 mi NW 21.9 mph 27.6 mph N/A   Overcast
11:15 AM 24.1 °F 11.0 °F 16.3 °F 72% 29.83 in 5.0 mi NW 16.1 mph 28.8 mph N/A Snow Light Snow
11:35 AM 24.8 °F 11.9 °F 14.7 °F 66% 29.83 in 7.0 mi NNW 16.1 mph 26.5 mph N/A   Mostly Cloudy
11:55 AM 24.4 °F 9.2 °F 15.4 °F 69% 29.83 in 7.0 mi NW 23.0 mph 32.2 mph N/A   Mostly Cloudy
12:15 PM 24.6 °F 11.3 °F 14.9 °F 67% 29.83 in 7.0 mi NW 17.3 mph 29.9 mph N/A   Scattered Clouds
12:35 PM 24.6 °F 10.9 °F 15.4 °F 68% 29.83 in 7.0 mi NW 18.4 mph 31.1 mph N/A   Mostly Cloudy
12:55 PM 25.0 °F 13.6 °F 15.4 °F 67% 29.83 in 10.0 mi NW 12.7 mph 24.2 mph N/A   Overcast
1:15 PM 24.6 °F 10.5 °F 14.9 °F 67% 29.83 in 7.0 mi NW 19.6 mph 26.5 mph N/A   Overcast
1:35 PM 24.8 °F 11.9 °F 14.5 °F 65% 29.83 in 10.0 mi NW 16.1 mph 26.5 mph N/A   Overcast
1:55 PM 24.8 °F 11.5 °F 14.5 °F 65% 29.82 in 10.0 mi NW 17.3 mph 27.6 mph N/A   Overcast
2:15 PM 24.8 °F 12.4 °F 14.0 °F 64% 29.82 in 10.0 mi NW 15.0 mph 24.2 mph N/A   Overcast
2:35 PM 25.3 °F 14.1 °F 14.2 °F 63% 29.83 in 10.0 mi NNW 12.7 mph 21.9 mph N/A   Overcast
2:55 PM 25.7 °F 12.7 °F 13.3 °F 59% 29.83 in 10.0 mi NW 17.3 mph 23.0 mph N/A   Scattered Clouds
3:15 PM 25.0 °F 11.3 °F 13.1 °F 61% 29.83 in 10.0 mi NW 18.4 mph 24.2 mph N/A   Mostly Cloudy
3:35 PM 24.8 °F 11.1 °F 13.1 °F 61% 29.84 in 10.0 mi WNW 18.4 mph 24.2 mph N/A   Mostly Cloudy
3:55 PM 24.4 °F 11.5 °F 14.0 °F 65% 29.84 in 10.0 mi NW 16.1 mph 21.9 mph N/A   Mostly Cloudy
4:15 PM 24.6 °F 11.3 °F 14.0 °F 64% 29.85 in 10.0 mi WNW 17.3 mph 20.7 mph N/A   Overcast
4:35 PM 23.9 °F 11.2 °F 13.5 °F 64% 29.85 in 10.0 mi NW 15.0 mph 19.6 mph N/A   Scattered Clouds
4:55 PM 23.9 °F 14.2 °F 13.6 °F 65% 29.86 in 10.0 mi NW 9.2 mph 18.4 mph N/A   Scattered Clouds
5:15 PM 23.9 °F 15.8 °F 14.0 °F 66% 29.86 in 10.0 mi WNW 6.9 mph - N/A   Overcast
5:35 PM 24.3 °F 13.9 °F 13.8 °F 64% 29.86 in 10.0 mi WNW 10.4 mph - N/A   Overcast
5:55 PM 23.9 °F 14.2 °F 14.0 °F 66% 29.86 in 10.0 mi WNW 9.2 mph - N/A   Overcast
6:15 PM 23.9 °F 15.8 °F 14.4 °F 67% 29.87 in 10.0 mi WNW 6.9 mph - N/A   Overcast
6:35 PM 23.4 °F 13.5 °F 13.8 °F 67% 29.87 in 10.0 mi WNW 9.2 mph - N/A   Mostly Cloudy
6:55 PM 22.1 °F 12.0 °F 12.7 °F 67% 29.88 in 10.0 mi WNW 9.2 mph - N/A   Scattered Clouds
7:15 PM 21.2 °F 13.6 °F 12.4 °F 69% 29.88 in 10.0 mi WNW 5.8 mph - N/A   Clear
7:35 PM 21.0 °F 14.6 °F 12.7 °F 70% 29.89 in 10.0 mi NW 4.6 mph - N/A   Clear
7:55 PM 20.8 °F 12.1 °F 12.9 °F 71% 29.89 in 10.0 mi NW 6.9 mph - N/A   Clear
8:15 PM 20.7 °F 13.0 °F 13.3 °F 73% 29.89 in 10.0 mi NW 5.8 mph - N/A   Clear
8:35 PM 20.1 °F 11.3 °F 12.9 °F 74% 29.89 in 10.0 mi NW 6.9 mph - N/A   Scattered Clouds
8:55 PM 19.4 °F 11.5 °F 12.6 °F 75% 29.90 in 10.0 mi NNW 5.8 mph - N/A   Overcast
9:15 PM 18.7 °F 10.6 °F 11.8 °F 75% 29.90 in 10.0 mi NW 5.8 mph - N/A   Mostly Cloudy
9:35 PM 18.0 °F 9.8 °F 11.1 °F 75% 29.90 in 10.0 mi NW 5.8 mph - N/A   Scattered Clouds
9:55 PM 17.8 °F 10.9 °F 11.1 °F 75% 29.91 in 10.0 mi NW 4.6 mph - N/A   Mostly Cloudy
10:15 PM 17.2 °F 6.8 °F 10.4 °F 75% 29.91 in 10.0 mi WNW 8.1 mph - N/A   Overcast
10:35 PM 17.1 °F 6.6 °F 10.4 °F 75% 29.92 in 10.0 mi NW 8.1 mph - N/A   Overcast
10:55 PM 17.2 °F 5.2 °F 9.5 °F 72% 29.92 in 10.0 mi NW 10.4 mph - N/A   Overcast
11:15 PM 16.9 °F 6.4 °F 9.3 °F 72% 29.92 in 10.0 mi NW 8.1 mph - N/A   Overcast
11:35 PM 16.7 °F 5.3 °F 9.1 °F 72% 29.93 in 10.0 mi NW 9.2 mph 16.1 mph N/A   Overcast
11:55 PM 16.2 °F 5.5 °F 8.4 °F 72% 29.94 in 10.0 mi NW 8.1 mph - N/A   Overcast